Weather History for LIRA - May, 2013

Change the Weather History Date:

Sunday, May 26, 2013

  Actual Average Record
Temperature  
Mean Temperature 57 °F -  
Max Temperature 64 °F 80 °F 89 °F (2008)
Min Temperature 50 °F 57 °F 50 °F (2013)
Degree Days  
Heating Degree Days 8    
Growing Degree Days 7 (Base 50)    
Moisture  
Dew Point 47 °F    
Average Humidity 71    
Maximum Humidity 94    
Minimum Humidity 49    
Precipitation  
Precipitation 0.00 in 0.05 in - ()
Sea Level Pressure  
Sea Level Pressure 29.91 in    
Wind  
Wind Speed 5 mph ()    
Max Wind Speed 10 mph    
Max Gust Speed -    
Visibility 6.2 miles    
Events Rain    
Averages and records for this station are not official NWS values.
T = Trace of Precipitation, MM = Missing Value Source: Averaged Metar Reports

Daily Weather History Graph

Daily Weather History Graph

Search for Another Location

Airport or City:

Trip Planner

Search our weather history database for the weather conditions in past years. The results will help you decide how hot, cold, wet, or windy it might be!

Date:

Astronomy

May. 26, 2013 Rise Set
Actual Time 5:40 AM CEST 8:33 PM CEST
Civil Twilight 5:07 AM CEST 9:06 PM CEST
Nautical Twilight 4:26 AM CEST 9:48 PM CEST
Astronomical Twilight 3:37 AM CEST 10:36 PM CEST
Moon 10:04 PM CEST (5/26) 6:51 AM CEST (5/26)
Length of Visible Light 15h 58m
Length of Day
14h 52m
Full, 98% of the Moon is Illuminated
May 26
Full
May 31
Last Quarter
Jun 8
New
Jun 16
First Quarter
Jun 23
Full

Hourly Weather History & Observations

Time (CEST) Temp. Dew Point Humidity Pressure Visibility Wind Dir Wind Speed Gust Speed Precip Events Conditions
12:15 AM 53.6 °F 46.4 °F 77% 29.83 in 6.2 mi SW 8.1 mph - N/A   Partly Cloudy
12:45 AM 53.6 °F 46.4 °F 77% 29.83 in 6.2 mi WSW 8.1 mph - N/A   Partly Cloudy
1:15 AM 53.6 °F 46.4 °F 77% 29.83 in 6.2 mi SW 5.8 mph - N/A   Scattered Clouds
1:45 AM 53.6 °F 46.4 °F 77% 29.83 in 6.2 mi SW 6.9 mph - N/A   Scattered Clouds
2:15 AM 53.6 °F 46.4 °F 77% 29.83 in 6.2 mi SW 4.6 mph - N/A   Scattered Clouds
2:45 AM 53.6 °F 46.4 °F 77% 29.83 in 6.2 mi South 4.6 mph - N/A   Scattered Clouds
3:15 AM 53.6 °F 46.4 °F 77% 29.83 in 6.2 mi South 5.8 mph - N/A   Scattered Clouds
3:45 AM 53.6 °F 46.4 °F 77% 29.83 in 6.2 mi SSW 4.6 mph - N/A   Scattered Clouds
4:15 AM 53.6 °F 48.2 °F 82% 29.83 in 6.2 mi SSW 4.6 mph - N/A   Scattered Clouds
4:45 AM 53.6 °F 48.2 °F 82% 29.83 in 6.2 mi SSW 3.5 mph - N/A   Scattered Clouds
5:15 AM 53.6 °F 48.2 °F 82% 29.80 in 6.2 mi SW 2.3 mph - N/A   Mostly Cloudy
5:45 AM 53.6 °F 48.2 °F 82% 29.80 in 6.2 mi South 3.5 mph - N/A   Mostly Cloudy
6:15 AM 53.6 °F 48.2 °F 82% 29.83 in 6.2 mi South 2.3 mph - N/A   Mostly Cloudy
6:45 AM 53.6 °F 50.0 °F 88% 29.83 in 6.2 mi NNW 4.6 mph - N/A Rain Light Rain
7:15 AM 51.8 °F 48.2 °F 88% 29.83 in 6.2 mi ENE 1.2 mph - N/A Rain Light Rain
7:45 AM 50.0 °F 48.2 °F 94% 29.86 in 6.2 mi SSW 1.2 mph - N/A Rain Light Rain
8:15 AM 51.8 °F 48.2 °F 88% 29.86 in 6.2 mi Calm Calm - N/A Rain Light Rain
8:45 AM 51.8 °F 48.2 °F 88% 29.86 in 6.2 mi ESE 2.3 mph - N/A   Scattered Clouds
9:15 AM 55.4 °F 50.0 °F 82% 29.89 in 6.2 mi SW 3.5 mph - N/A   Scattered Clouds
9:45 AM 57.2 °F 50.0 °F 77% 29.89 in 6.2 mi West 4.6 mph - N/A   Scattered Clouds
10:15 AM 57.2 °F 50.0 °F 77% 29.89 in 6.2 mi WNW 8.1 mph - N/A   Scattered Clouds
10:45 AM 59.0 °F 46.4 °F 63% 29.89 in 6.2 mi NNW 9.2 mph - N/A   Scattered Clouds
11:15 AM 59.0 °F 44.6 °F 59% 29.92 in 6.2 mi NW 5.8 mph - N/A   Scattered Clouds
11:45 AM 59.0 °F 44.6 °F 59% 29.92 in 6.2 mi NW 8.1 mph - N/A   Scattered Clouds
12:15 PM 60.8 °F 42.8 °F 52% 29.95 in 6.2 mi WNW 8.1 mph - N/A   Mostly Cloudy
12:45 PM 60.8 °F 44.6 °F 55% 29.95 in 6.2 mi WNW 5.8 mph - N/A   Mostly Cloudy
1:15 PM 60.8 °F 44.6 °F 55% 29.95 in 6.2 mi North 4.6 mph - N/A   Mostly Cloudy
1:45 PM 62.6 °F 44.6 °F 52% 29.95 in 6.2 mi WNW 5.8 mph - N/A   Mostly Cloudy
2:15 PM 62.6 °F 44.6 °F 52% 29.95 in 6.2 mi ESE 1.2 mph - N/A   Mostly Cloudy
2:45 PM 64.4 °F 44.6 °F 49% 29.95 in 6.2 mi NW 4.6 mph - N/A   Mostly Cloudy
3:15 PM 64.4 °F 44.6 °F 49% 29.95 in 6.2 mi SW 4.6 mph - N/A   Mostly Cloudy
3:45 PM 64.4 °F 46.4 °F 52% 29.95 in 6.2 mi WSW 3.5 mph - N/A   Scattered Clouds
4:15 PM 64.4 °F 46.4 °F 52% 29.95 in 6.2 mi WNW 5.8 mph - N/A   Scattered Clouds
4:45 PM 64.4 °F 46.4 °F 52% 29.95 in 6.2 mi West 6.9 mph - N/A   Scattered Clouds
5:15 PM 64.4 °F 46.4 °F 52% 29.95 in 6.2 mi West 9.2 mph - N/A   Scattered Clouds
5:45 PM 64.4 °F 46.4 °F 52% 29.95 in 6.2 mi West 10.4 mph - N/A   Scattered Clouds
6:15 PM 64.4 °F 44.6 °F 49% 29.95 in 6.2 mi WSW 8.1 mph - N/A   Scattered Clouds
6:45 PM 62.6 °F 44.6 °F 52% 29.95 in 6.2 mi WSW 10.4 mph - N/A   Scattered Clouds
7:15 PM 62.6 °F 46.4 °F 55% 29.95 in 6.2 mi SW 8.1 mph - N/A   Scattered Clouds
7:45 PM 60.8 °F 46.4 °F 59% 29.95 in 6.2 mi SW 6.9 mph - N/A   Scattered Clouds
8:15 PM 59.0 °F 51.8 °F 77% 29.98 in 6.2 mi SSW 5.8 mph - N/A   Scattered Clouds
8:45 PM 59.0 °F 51.8 °F 77% 29.98 in 6.2 mi SSW 5.8 mph - N/A   Partly Cloudy
9:15 PM 57.2 °F 51.8 °F 82% 29.98 in - South 3.5 mph - N/A   Clear
9:45 PM 57.2 °F 51.8 °F 82% 29.98 in 6.2 mi South 4.6 mph - N/A   Partly Cloudy
10:15 PM 57.2 °F 51.8 °F 82% 29.98 in 6.2 mi South 5.8 mph - N/A   Partly Cloudy
10:45 PM 55.4 °F 51.8 °F 88% 29.98 in 6.2 mi South 4.6 mph - N/A   Scattered Clouds
11:15 PM 55.4 °F 51.8 °F 88% 29.98 in 6.2 mi South 5.8 mph - N/A   Partly Cloudy
11:45 PM 55.4 °F 51.8 °F 88% 30.01 in 6.2 mi South 5.8 mph - N/A   Scattered Clouds